Weather History for LIRM - October, 2013

Change the Weather History Date:

Tuesday, October 1, 2013

  Actual Average (LIRN) Record (LIRN)
Temperature  
Mean Temperature 69 °F -  
Max Temperature 79 °F 72 °F 84 °F (2012)
Min Temperature 59 °F 53 °F 51 °F (2002)
Cooling Degree Days 4    
Growing Degree Days 19 (Base 50)    
Moisture  
Dew Point 63 °F    
Average Humidity 80    
Maximum Humidity 94    
Minimum Humidity 57    
Precipitation  
Precipitation 0.00 in 0.16 in - ()
Sea Level Pressure  
Sea Level Pressure 29.69 in    
Wind  
Wind Speed 4 mph ()    
Max Wind Speed 10 mph    
Max Gust Speed -    
Visibility 6.6 miles    
Events      
Averages and records for this station are not official NWS values.
T = Trace of Precipitation, MM = Missing Value Source: Averaged Metar Reports

Daily Weather History Graph

Daily Weather History Graph

Search for Another Location

Airport or City:

Trip Planner

Search our weather history database for the weather conditions in past years. The results will help you decide how hot, cold, wet, or windy it might be!

Date:

Astronomy

Oct. 01, 2013 Rise Set
Actual Time 7:00 AM CEST 6:45 PM CEST
Civil Twilight 6:32 AM CEST 7:13 PM CEST
Nautical Twilight 6:00 AM CEST 7:44 PM CEST
Astronomical Twilight 5:28 AM CEST 8:17 PM CEST
Moon 3:16 AM CEST (10/1) 4:41 PM CEST (10/1)
Length of Visible Light 12h 40m
Length of Day
11h 45m
Waning Crescent, 14% of the Moon is Illuminated
Oct 1
Waning Crescent
Oct 5
New
Oct 12
First Quarter
Oct 19
Full
Oct 27
Last Quarter

Hourly Weather History & Observations

Time (CEST) Temp. Dew Point Humidity Pressure Visibility Wind Dir Wind Speed Gust Speed Precip Events Conditions
12:55 AM 66.2 °F 62.6 °F 88% 29.62 in 6.2 mi East 2.3 mph - N/A   Scattered Clouds
1:55 AM 64.4 °F 60.8 °F 88% 29.62 in 6.2 mi ESE 2.3 mph - N/A   Scattered Clouds
2:00 AM 64 °F 61 °F 86% 29.64 in 6 mi ESE 2.3 mph - -   Partly Cloudy
2:55 AM 64.4 °F 60.8 °F 88% 29.65 in 6.2 mi Calm Calm - N/A   Scattered Clouds
3:55 AM 64.4 °F 60.8 °F 88% 29.65 in 6.2 mi NNE 2.3 mph - N/A   Partly Cloudy
4:55 AM 62.6 °F 57.2 °F 82% 29.65 in 6.2 mi ESE 2.3 mph - N/A   Partly Cloudy
5:00 AM 63 °F 58 °F 79% 29.66 in 6 mi ESE 2.3 mph - -   Scattered Clouds
5:55 AM 62.6 °F 57.2 °F 82% 29.65 in 4.3 mi Calm Calm - N/A   Unknown
6:55 AM 59.0 °F 55.4 °F 88% 29.65 in 6.2 mi NNE 4.6 mph - N/A   Scattered Clouds
7:55 AM 60.8 °F 57.2 °F 88% 29.65 in 6.2 mi NNE 3.5 mph - N/A   Scattered Clouds
8:00 AM 61 °F 56 °F 80% 29.67 in 9 mi NNE 3.5 mph - -   Partly Cloudy
8:55 AM 66.2 °F 60.8 °F 83% 29.68 in 6.2 mi North 4.6 mph - N/A   Partly Cloudy
9:55 AM 69.8 °F 66.2 °F 88% 29.71 in 6.2 mi North 4.6 mph - N/A   Partly Cloudy
10:55 AM 73.4 °F 66.2 °F 78% 29.71 in 6.2 mi WNW 2.3 mph - N/A   Partly Cloudy
11:55 AM 75.2 °F 64.4 °F 69% 29.71 in 6.2 mi SSE 2.3 mph - N/A   Scattered Clouds
12:55 PM 77.0 °F 62.6 °F 61% 29.71 in 6.2 mi NNE 3.5 mph - N/A   Scattered Clouds
1:55 PM 77.0 °F 66.2 °F 69% 29.71 in 6.2 mi West 4.6 mph - N/A   Partly Cloudy
2:00 PM 77 °F 66 °F 60% 29.72 in 31 mi West 4.6 mph - -   Scattered Clouds
2:55 PM 77.0 °F 64.4 °F 65% 29.71 in 6.2 mi West 9.2 mph - N/A   Scattered Clouds
3:55 PM 78.8 °F 62.6 °F 57% 29.71 in 6.2 mi West 10.4 mph - N/A   Unknown
4:55 PM 77.0 °F 66.2 °F 69% 29.71 in 6.2 mi West 10.4 mph - N/A   Partly Cloudy
5:00 PM 78 °F 67 °F 60% 29.72 in 31 mi West 10.4 mph - -   Scattered Clouds
5:55 PM 75.2 °F 66.2 °F 73% 29.71 in 6.2 mi West 10.4 mph - N/A   Partly Cloudy
6:55 PM 73.4 °F 69.8 °F 88% 29.71 in 6.2 mi West 6.9 mph - N/A   Partly Cloudy
7:55 PM 71.6 °F 69.8 °F 94% 29.71 in 6.2 mi WSW 6.9 mph - N/A   Partly Cloudy
8:00 PM 72 °F 69 °F 89% 29.72 in 25 mi WSW 6.9 mph - -   Scattered Clouds
8:55 PM 71.6 °F 68.0 °F 88% 29.74 in 6.2 mi West 4.6 mph - N/A   Partly Cloudy
9:55 PM 68.0 °F 66.2 °F 94% 29.77 in 6.2 mi NNE 5.8 mph - N/A   Scattered Clouds
10:55 PM 68.0 °F 66.2 °F 94% 29.74 in - NE 5.8 mph - N/A   Clear
11:00 PM 68 °F 65 °F 88% 29.75 in 16 mi NE 5.8 mph - -  
11:55 PM 68.0 °F 64.4 °F 88% 29.77 in - NNE 5.8 mph - N/A   Clear